Sarasota, FL

8:11 AM EST on December 13, 2019 (GMT -0500)
Sarasota-bradenton

Weather History for KSRQ - November, 2019

Change the Weather History Date:

Thursday, November 14, 2019

  Actual Average Record
Temperature  
Mean Temperature 74 °F 70 °F  
Max Temperature 83 °F 79 °F 89 °F (1964)
Min Temperature 66 °F 60 °F 36 °F (1968)
Degree Days  
Heating Degree Days 0 1  
Month to date heating degree days 0 4  
Since 1 July heating degree days 0 7  
Cooling Degree Days 10 5  
Month to date cooling degree days 166 88  
Year to date cooling degree days 4180 3232  
Growing Degree Days 24 (Base 50)    
Moisture  
Dew Point 65 °F    
Average Humidity 72    
Maximum Humidity 91    
Minimum Humidity 58    
Precipitation  
Precipitation 0.02 in 0.05 in 4.80 in (1997)
Month to date precipitation 0.19 0.96  
Year to date precipitation 46.95 49.51  
Sea Level Pressure  
Sea Level Pressure 30.02 in    
Wind  
Wind Speed 10 mph ()    
Max Wind Speed 17 mph    
Max Gust Speed 22 mph    
Visibility 10.0 miles    
Events Rain    
T = Trace of Precipitation, MM = Missing Value Source: Averaged Metar Reports

Daily Weather History Graph

Daily Weather History Graph

Search for Another Location

Airport or City:

Astronomy

Nov. 14, 2019 Rise Set
Actual Time 6:49 AM EST 5:39 PM EST
Civil Twilight 6:25 AM EST 6:03 PM EST
Nautical Twilight 5:57 AM EST 6:31 PM EST
Astronomical Twilight 5:29 AM EST 6:59 PM EST
Moon 7:30 PM EST (11/14) 8:38 AM EST (11/14)
Length of Visible Light 11h 38m
Length of Day
10h 49m
Waning Gibbous, 95% of the Moon is Illuminated
Nov 14
Waning Gibbous
Nov 19
Last Quarter
Nov 26
New
Dec 4
First Quarter
Dec 12
Full

Hourly Weather History & Observations

Time (EST) Temp. Heat Index Dew Point Humidity Pressure Visibility Wind Dir Wind Speed Gust Speed Precip Events Conditions
12:53 AM 66.9 °F - 57.9 °F 73% 30.04 in 10.0 mi ENE 11.5 mph - N/A   Partly Cloudy
1:53 AM 66.9 °F - 57.9 °F 73% 30.04 in 10.0 mi ENE 9.2 mph - N/A   Mostly Cloudy
2:53 AM 66.9 °F - 57.9 °F 73% 30.02 in 10.0 mi ENE 11.5 mph - N/A   Scattered Clouds
3:53 AM 68.0 °F - 59.0 °F 73% 30.02 in 10.0 mi ENE 13.8 mph - N/A   Scattered Clouds
4:53 AM 69.1 °F - 59.0 °F 70% 30.03 in 10.0 mi ENE 9.2 mph - N/A   Mostly Cloudy
5:53 AM 69.1 °F - 60.1 °F 73% 30.04 in 10.0 mi ENE 12.7 mph - N/A   Mostly Cloudy
6:53 AM 70.0 °F - 61.0 °F 73% 30.06 in 10.0 mi ENE 11.5 mph - N/A   Mostly Cloudy
7:53 AM 70.0 °F - 61.0 °F 73% 30.06 in 10.0 mi East 11.5 mph - N/A   Overcast
8:53 AM 72.0 °F - 62.1 °F 71% 30.07 in 10.0 mi East 10.4 mph - N/A   Overcast
9:53 AM 75.0 °F - 64.0 °F 69% 30.07 in 10.0 mi East 11.5 mph - N/A   Overcast
10:53 AM 78.1 °F - 66.0 °F 66% 30.06 in 10.0 mi East 15.0 mph - N/A   Mostly Cloudy
11:53 AM 80.1 °F 82.3 °F 66.9 °F 64% 30.04 in 10.0 mi East 17.3 mph - N/A   Clear
12:53 PM 82.0 °F 84.9 °F 68.0 °F 62% 30.01 in 10.0 mi ESE 15.0 mph - N/A   Clear
1:53 PM 81.0 °F 83.3 °F 66.9 °F 62% 29.99 in 10.0 mi ESE 15.0 mph - N/A   Overcast
2:53 PM 82.0 °F 84.5 °F 66.9 °F 60% 29.98 in 10.0 mi East 11.5 mph - N/A   Overcast
3:53 PM 82.0 °F 84.9 °F 68.0 °F 62% 29.97 in 10.0 mi ESE 17.3 mph - N/A   Clear
4:53 PM 80.1 °F 82.3 °F 66.9 °F 64% 29.98 in 10.0 mi ESE 10.4 mph - N/A   Partly Cloudy
5:53 PM 79.0 °F - 66.9 °F 66% 29.99 in 10.0 mi East 8.1 mph - N/A   Partly Cloudy
6:53 PM 78.1 °F - 68.0 °F 71% 29.99 in 10.0 mi East 9.2 mph - N/A   Scattered Clouds
7:53 PM 75.9 °F - 70.0 °F 82% 30.01 in 10.0 mi East 9.2 mph - 0.00 in   Overcast
8:53 PM 75.0 °F - 70.0 °F 84% 29.99 in 10.0 mi East 9.2 mph - 0.01 in Rain Light Rain
9:53 PM 73.9 °F - 71.1 °F 91% 30.01 in 10.0 mi ESE 8.1 mph - 0.01 in   Partly Cloudy
10:53 PM 73.9 °F - 70.0 °F 87% 30.00 in 10.0 mi SE 9.2 mph - N/A   Clear
11:53 PM 73.9 °F - 70.0 °F 87% 29.97 in 10.0 mi ESE 9.2 mph - N/A   Clear